Location: Aldenham
(51.6667°N, 0.3500°W)
Time: 17:17:18
(UTC+00:00)

Cosmos 2278 Rocket - Pass Details

Date: 18 November 2025
Orbit: 841 x 843 km, 71.0° (Epoch: 10 December)

Event Time Altitude Azimuth Distance (km) Brightness Sun altitude
Rises 17:35:41 0° 197° (SSW) 3,385 5.8 -13.4°
Reaches altitude 10° 17:38:07 10° 195° (SSW) 2,454 5.0 -13.8°
Maximum altitude 17:43:41 64° 115° (ESE) 931 2.2 -14.7°
Enters shadow 17:48:36 14° 36° (NE) 2,216 4.0 -15.4°
